[[{"header":{"parameterUnit":"m.s-1","parameterCategory":1,"la1":30.2991,"la2":30.254,"lo1":-89.0895,"lo2":-89.0444,"dy":0.0017,"dx":0.0017,"nx":28,"ny":28,"refTime":"2024-06-29T03:00:00:Z","depth":0,"parameterNumber":2,"parameterNumberName":"U-component_of_WINDS"},"data":[0,0,0,0,0,0,0,0,0,0,0,0,0,0,0,0,0,0,0,0,0,0,0,0,0,0,0,0,0,0,0,0,0,0,0,0,0,0,0,0,0,0,0,0,0,0,0,0,0,0,0,0,0,0,0,0,0,0,3.3408,3.3408,0,3.3488,3.3489,3.349,3.3524,3.3524,3.3524,3.3523,3.3604,3.3606,3.3609,0,0,0,0,0,0,0,0,0,0,0,0,0,3.3284,3.3286,3.3407,3.3408,3.3409,3.3488,3.3489,3.349,3.3524,3.3524,3.3523,3.3523,3.3603,3.3606,3.3609,0,0,0,0,0,0,0,0,0,0,0,0,0,3.3348,3.3287,3.3407,3.3436,3.3439,3.3487,3.3489,3.349,3.3524,3.3524,3.3523,3.3523,3.3603,3.3606,3.3609,3.3635,0,0,3.362,3.3621,0,0,0,0,0,0,0,0,3.3345,3.3353,3.3431,3.3434,3.3438,3.3496,3.3475,3.3539,3.3524,3.3492,3.3523,3.3523,3.3568,3.3574,3.359,3.3638,3.3642,3.362,3.3622,3.3624,3.3625,0,0,0,0,0,0,0,3.334,3.335,3.3439,3.3432,3.3436,3.3445,3.3454,3.3487,3.353,3.3494,3.3497,3.3506,3.357,3.3586,3.3592,3.3643,3.362,3.3623,3.3625,3.3626,3.3719,3.372,0,0,0,0,0,0,3.3331,3.3346,3.3437,3.3442,3.339,3.3447,3.3457,3.3477,3.353,3.3538,3.3506,3.3508,3.3581,3.3588,3.3595,3.363,3.3624,3.3627,3.3629,3.3719,3.3719,3.372,0,0,0,0,0,0,3.3328,3.3339,3.3433,3.3394,3.3407,3.345,3.3472,3.3479,3.3495,3.3539,3.3547,3.3515,3.3581,3.359,3.3625,3.3633,3.3628,3.3631,3.3718,3.3719,3.372,3.3698,0,0,0,0,0,0,3.3325,3.3338,3.3347,3.3394,3.3409,3.3462,3.3472,3.3481,3.3501,3.3504,3.3549,3.3556,3.3581,3.362,3.3629,3.3637,3.3634,3.3718,3.3719,3.3719,3.3698,3.3698,3.3697,0,0,0,0,0,3.332,3.3337,3.3348,3.3358,3.3422,3.3462,3.3471,3.3499,3.3502,3.3512,3.3541,3.3555,3.3631,3.3623,3.3633,3.3643,3.3717,3.3718,3.3719,3.3698,3.3698,3.3697,0,0,0,0,0,0,3.3288,3.3344,3.3356,3.3389,3.3421,3.3468,3.3482,3.3498,3.3529,3.353,3.3564,3.3574,3.3606,3.3628,3.3619,3.3672,3.3675,3.3678,3.3656,3.3656,3.3656,3.3649,3.3637,0,0,0,0,0,3.3285,3.3313,3.336,3.3385,3.34,3.3438,3.3457,3.3477,3.3511,3.3524,3.3555,3.3588,3.3619,3.3639,3.367,3.3702,3.3713,3.3714,3.3714,3.3713,3.3715,3.3736,3.3737,3.3723,3.3723,3.3723,0,0,3.3279,3.3313,3.3328,3.3379,3.3406,3.3435,3.3449,3.3478,3.35,3.3528,3.3564,3.3588,3.3627,3.3661,3.3677,3.368,3.3722,3.3714,3.3714,3.3716,3.3737,3.3738,3.3739,3.3723,3.3723,3.3723,0,0,3.3282,3.331,3.3335,3.3362,3.3404,3.3429,3.3435,3.3481,3.3498,3.3535,3.3557,3.3584,3.3637,3.3664,3.3685,3.3702,3.3717,3.3712,3.3709,3.3729,3.373,3.3731,3.3738,3.374,3.3714,3.3714,3.3714,0,3.3269,3.3313,3.3345,3.3374,3.3396,3.3425,3.3451,3.3476,3.3525,3.354,3.3543,3.3612,3.3639,3.3681,3.3686,3.3702,3.371,3.3706,3.3727,3.3729,3.373,3.3738,3.374,3.3713,3.3713,3.3713,3.3713,0,3.3295,3.3326,3.3341,3.3389,3.3413,3.344,3.3477,3.3498,3.3516,3.3542,3.358,3.3615,3.3655,3.3666,3.3684,3.3711,3.3712,3.3721,3.3725,3.373,3.3738,3.374,3.3711,3.3712,3.3712,3.3712,0,0,3.3278,3.3346,3.3351,3.3375,3.3424,3.3448,3.3477,3.3517,3.3535,3.3569,3.3595,3.364,3.365,3.3673,3.3695,3.3712,3.3725,3.3719,3.3721,3.3719,3.3759,3.3752,3.3755,3.3736,3.3737,3.3737,3.3756,0,3.3289,3.3342,3.3373,3.3414,3.3444,3.3473,3.3498,3.3532,3.3557,3.3586,3.3615,3.3647,3.3656,3.3671,3.3689,3.3719,3.3734,3.3719,3.3761,3.3762,3.3749,3.3758,3.3751,3.3767,3.3759,3.376,3.376,0,3.3307,3.3342,3.3386,3.3434,3.3448,3.347,3.3511,3.3538,3.3577,3.3595,3.3623,3.3645,3.3678,3.368,3.3727,3.3716,3.3735,3.3753,3.3755,3.3759,3.3761,3.3763,3.3773,3.3775,3.3765,3.3764,3.3764,0,3.3291,3.3349,3.3384,3.3403,3.3459,3.3475,3.3499,3.3539,3.3561,3.3597,3.3612,3.3651,3.3672,3.3702,3.3734,3.3733,3.3778,3.3783,3.3794,3.3793,3.3801,3.38,3.3813,3.3814,3.3814,3.3814,3.3814,0,3.3299,3.3325,3.3378,3.3399,3.3429,3.3466,3.3495,3.3522,3.3557,3.3584,3.3612,3.3637,3.3678,3.3709,3.3735,3.377,3.3779,3.3795,3.3801,3.3792,3.379,3.3805,3.3804,3.3814,3.3814,3.3814,3.3814,0,3.3286,3.3322,3.3362,3.3414,3.3427,3.3448,3.3492,3.3514,3.3542,3.3577,3.3587,3.3631,3.3669,3.3704,3.3754,3.3772,3.3807,3.3816,3.3794,3.3798,3.3807,3.3806,3.383,3.3835,3.3832,3.3832,3.3832,0,3.3288,3.3309,3.3364,3.3385,3.3409,3.3442,3.3466,3.3503,3.3527,3.3576,3.3592,3.3632,3.3666,3.3725,3.3762,3.3801,3.381,3.3817,3.3816,3.3807,3.3811,3.3809,3.3812,3.3815,3.3815,3.3815,3.3815,0,3.3289,3.3307,3.3341,3.3382,3.341,3.3444,3.3478,3.3494,3.3538,3.3564,3.3603,3.363,3.3682,3.3722,3.3766,3.3792,3.3811,3.3815,3.382,3.381,3.3797,3.3805,3.3792,3.3814,3.3814,3.3814,3.3814,3.3814,3.3284,3.3305,3.3348,3.3385,3.3416,3.3448,3.3472,3.3504,3.3538,3.3584,3.3604,3.3644,3.3685,3.3746,3.3772,3.3805,3.3809,3.3816,3.3817,3.3818,3.3817,3.3793,3.3813,3.3813,3.3813,3.3813,3.3813,0,3.3287,3.3317,3.3351,3.3399,3.3429,3.3446,3.3486,3.351,3.3545,3.3582,3.3616,3.3663,3.3702,3.3743,3.3785,3.3803,3.3813,3.3813,3.3812,3.3818,3.381,3.3802,3.3804,3.3804,3.3804,3.3804,3.3804,3.3804,3.3292,3.3329,3.3352,3.3404,3.3434,3.3474,3.3496,3.3526,3.3556,3.3607,3.364,3.3667,3.3706,3.3752,3.3789,3.38,3.3815,3.3812,3.3825,3.3817,3.3818,3.3818,3.3811,3.3815,3.3815,3.383,3.383,3.383]},{"header":{"parameterUnit":"m.s-1","parameterCategory":1,"la1":30.2991,"la2":30.254,"lo1":-89.0895,"lo2":-89.0444,"dy":0.0017,"dx":0.0017,"nx":28,"ny":28,"refTime":"2024-06-29T03:00:00:Z","depth":0,"parameterNumber":3,"parameterNumberName":"V-component_of_WINDS"},"data":[0,0,0,0,0,0,0,0,0,0,0,0,0,0,0,0,0,0,0,0,0,0,0,0,0,0,0,0,0,0,0,0,0,0,0,0,0,0,0,0,0,0,0,0,0,0,0,0,0,0,0,0,0,0,0,0,0,0,-2.3512,-2.3513,0,-2.3542,-2.3543,-2.3543,-2.3557,-2.3557,-2.3557,-2.3557,-2.3585,-2.3586,-2.3587,0,0,0,0,0,0,0,0,0,0,0,0,0,-2.3467,-2.3468,-2.3512,-2.3513,-2.3513,-2.3542,-2.3543,-2.3543,-2.3557,-2.3557,-2.3557,-2.3556,-2.3585,-2.3586,-2.3587,0,0,0,0,0,0,0,0,0,0,0,0,0,-2.3491,-2.3468,-2.3512,-2.3523,-2.3525,-2.3542,-2.3543,-2.3543,-2.3557,-2.3557,-2.3557,-2.3556,-2.3584,-2.3586,-2.3587,-2.3595,0,0,-2.359,-2.3591,0,0,0,0,0,0,0,0,-2.3489,-2.3492,-2.3521,-2.3523,-2.3524,-2.3546,-2.3537,-2.356,-2.3557,-2.3544,-2.3557,-2.3556,-2.3572,-2.3574,-2.358,-2.3596,-2.3597,-2.359,-2.3591,-2.3592,-2.3592,0,0,0,0,0,0,0,-2.3488,-2.3491,-2.3524,-2.3522,-2.3524,-2.3527,-2.353,-2.3542,-2.3558,-2.3545,-2.3547,-2.355,-2.3573,-2.3579,-2.358,-2.3598,-2.359,-2.3591,-2.3592,-2.3593,-2.3625,-2.3625,0,0,0,0,0,0,-2.3484,-2.349,-2.3523,-2.3525,-2.3506,-2.3528,-2.3532,-2.3539,-2.3558,-2.3561,-2.355,-2.3551,-2.3577,-2.3579,-2.3581,-2.3594,-2.3592,-2.3593,-2.3593,-2.3625,-2.3625,-2.3625,0,0,0,0,0,0,-2.3483,-2.3487,-2.3522,-2.3508,-2.3512,-2.3529,-2.3537,-2.3539,-2.3545,-2.3561,-2.3564,-2.3553,-2.3577,-2.358,-2.3592,-2.3595,-2.3593,-2.3594,-2.3624,-2.3625,-2.3625,-2.3617,0,0,0,0,0,0,-2.3482,-2.3487,-2.349,-2.3508,-2.3513,-2.3532,-2.3537,-2.354,-2.3548,-2.3549,-2.3565,-2.3568,-2.3577,-2.359,-2.3593,-2.3596,-2.3595,-2.3624,-2.3625,-2.3625,-2.3617,-2.3617,-2.3617,0,0,0,0,0,-2.348,-2.3485,-2.349,-2.3494,-2.3517,-2.3532,-2.3535,-2.3546,-2.3548,-2.3551,-2.3562,-2.3567,-2.3594,-2.3591,-2.3595,-2.3598,-2.3624,-2.3624,-2.3625,-2.3617,-2.3617,-2.3617,0,0,0,0,0,0,-2.3466,-2.3488,-2.3493,-2.3504,-2.3516,-2.3534,-2.3539,-2.3545,-2.3557,-2.3557,-2.357,-2.3573,-2.3585,-2.3593,-2.3589,-2.3608,-2.361,-2.3611,-2.3603,-2.3603,-2.3602,-2.36,-2.3596,0,0,0,0,0,-2.3464,-2.3475,-2.3493,-2.3501,-2.3507,-2.3522,-2.3529,-2.3537,-2.3549,-2.3554,-2.3566,-2.3578,-2.3589,-2.3596,-2.3608,-2.3618,-2.3623,-2.3623,-2.3623,-2.3622,-2.3623,-2.3631,-2.3632,-2.3626,-2.3626,-2.3626,0,0,-2.346,-2.3473,-2.3479,-2.3498,-2.3509,-2.352,-2.3526,-2.3536,-2.3545,-2.3556,-2.3569,-2.3578,-2.3592,-2.3604,-2.361,-2.3611,-2.3626,-2.3623,-2.3623,-2.3623,-2.3632,-2.3632,-2.3633,-2.3626,-2.3626,-2.3626,0,0,-2.3458,-2.3469,-2.3478,-2.3489,-2.3505,-2.3516,-2.3518,-2.3536,-2.3543,-2.3556,-2.3565,-2.3575,-2.3594,-2.3605,-2.3613,-2.3619,-2.3624,-2.3622,-2.3621,-2.3629,-2.3629,-2.363,-2.3633,-2.3634,-2.3622,-2.3622,-2.3622,0,-2.3451,-2.3468,-2.3481,-2.3492,-2.3501,-2.3514,-2.3523,-2.3533,-2.3552,-2.3558,-2.3559,-2.3585,-2.3595,-2.3611,-2.3613,-2.3618,-2.3622,-2.362,-2.3628,-2.3629,-2.3629,-2.3633,-2.3634,-2.3622,-2.3622,-2.3622,-2.3622,0,-2.3459,-2.3471,-2.3476,-2.3496,-2.3505,-2.3515,-2.3531,-2.3539,-2.3547,-2.3557,-2.3571,-2.3585,-2.36,-2.3604,-2.3611,-2.3622,-2.3622,-2.3626,-2.3627,-2.3629,-2.3633,-2.3634,-2.3622,-2.3622,-2.3622,-2.3622,0,0,-2.3447,-2.3476,-2.3478,-2.3488,-2.3508,-2.3518,-2.3529,-2.3545,-2.3553,-2.3566,-2.3576,-2.3594,-2.3598,-2.3607,-2.3615,-2.3622,-2.3628,-2.3625,-2.3626,-2.3626,-2.3642,-2.364,-2.3641,-2.3632,-2.3632,-2.3633,-2.3641,0,-2.3449,-2.347,-2.3484,-2.35,-2.3512,-2.3525,-2.3535,-2.3549,-2.356,-2.3572,-2.3583,-2.3596,-2.36,-2.3606,-2.3613,-2.3625,-2.3631,-2.3625,-2.3642,-2.3643,-2.3638,-2.3642,-2.3639,-2.3646,-2.3642,-2.3643,-2.3643,0,-2.3453,-2.3468,-2.3486,-2.3507,-2.3513,-2.3521,-2.3539,-2.355,-2.3566,-2.3574,-2.3585,-2.3595,-2.3608,-2.3609,-2.3628,-2.3624,-2.3632,-2.364,-2.364,-2.3642,-2.3643,-2.3645,-2.3649,-2.365,-2.3645,-2.3645,-2.3644,0,-2.3444,-2.3468,-2.3482,-2.3491,-2.3516,-2.3522,-2.3533,-2.3549,-2.3559,-2.3574,-2.3581,-2.3597,-2.3605,-2.3618,-2.3632,-2.3631,-2.365,-2.3652,-2.3657,-2.3657,-2.366,-2.3659,-2.3666,-2.3664,-2.3664,-2.3664,-2.3664,0,-2.3444,-2.3455,-2.3479,-2.3488,-2.3501,-2.3517,-2.3529,-2.3541,-2.3556,-2.3568,-2.358,-2.359,-2.3608,-2.3621,-2.3632,-2.3647,-2.3651,-2.3657,-2.366,-2.3656,-2.3656,-2.3662,-2.3662,-2.3665,-2.3665,-2.3665,-2.3665,0,-2.3435,-2.3452,-2.3469,-2.3492,-2.3499,-2.3507,-2.3527,-2.3537,-2.3549,-2.3564,-2.3568,-2.3588,-2.3604,-2.3619,-2.364,-2.3648,-2.3663,-2.3667,-2.3658,-2.366,-2.3664,-2.3664,-2.3675,-2.3677,-2.3674,-2.3674,-2.3674,0,-2.3435,-2.3443,-2.3469,-2.3478,-2.3489,-2.3503,-2.3514,-2.3531,-2.3542,-2.3563,-2.357,-2.3588,-2.3603,-2.3628,-2.3644,-2.3661,-2.3665,-2.3668,-2.3668,-2.3665,-2.3666,-2.3666,-2.3667,-2.3668,-2.3668,-2.3667,-2.3667,0,-2.3432,-2.344,-2.3456,-2.3475,-2.3487,-2.3503,-2.3518,-2.3525,-2.3545,-2.3557,-2.3575,-2.3586,-2.361,-2.3627,-2.3647,-2.3658,-2.3666,-2.3668,-2.367,-2.3666,-2.3661,-2.3665,-2.3658,-2.3667,-2.3667,-2.3667,-2.3667,-2.3667,-2.3427,-2.3437,-2.3457,-2.3474,-2.3488,-2.3503,-2.3514,-2.3529,-2.3544,-2.3565,-2.3575,-2.3593,-2.3611,-2.3639,-2.365,-2.3665,-2.3666,-2.3669,-2.367,-2.3671,-2.3671,-2.3659,-2.3668,-2.3668,-2.3668,-2.3668,-2.3668,0,-2.3426,-2.344,-2.3456,-2.3479,-2.3493,-2.3501,-2.352,-2.3531,-2.3547,-2.3564,-2.358,-2.3601,-2.3619,-2.3638,-2.3657,-2.3665,-2.367,-2.367,-2.3669,-2.3672,-2.3667,-2.3664,-2.3666,-2.3666,-2.3666,-2.3666,-2.3666,-2.3666,-2.3427,-2.3444,-2.3455,-2.348,-2.3494,-2.3513,-2.3523,-2.3538,-2.3552,-2.3575,-2.3591,-2.3603,-2.3622,-2.3643,-2.366,-2.3665,-2.3672,-2.3671,-2.3677,-2.3672,-2.3672,-2.3672,-2.3669,-2.3672,-2.3672,-2.368,-2.368,-2.368]}]]